Location: Caltech
(34.1382°N, 118.1253°W)
Time: 03:38:52
(UTC-07:00)

A-11 Canister half - All Passes

Search period start: 01 April 2015 00:00
Search period end: 11 April 2015 00:00
Orbit: 1514 x 1685 km, 47.2° (Epoch: 31 March)

Date Brightness Start Highest point End Pass type
(mag) Time Alt. Az. Time Alt. Az. Time Alt. Az.
01 Apr - 01:47:51 10° WNW 01:57:12 39° N 02:06:30 10° ENE visible
01 Apr - 03:54:22 10° NW 04:04:16 53° NNE 04:13:59 10° E visible
01 Apr - 05:59:44 10° WNW 06:09:45 66° SW 06:19:24 10° SE visible
01 Apr - 08:08:01 10° W 08:13:41 16° SW 08:18:35 10° SSW daylight
01 Apr - 21:12:48 10° SSW 21:22:12 52° SE 21:31:55 10° ENE visible
01 Apr - 23:17:22 10° WSW 23:27:17 61° NNW 23:37:22 10° NE visible
02 Apr - 01:24:48 10° WNW 01:34:08 39° N 01:43:28 10° ENE visible
02 Apr - 03:31:25 10° NW 03:41:16 51° NNE 03:50:58 10° E visible
02 Apr - 05:36:46 10° WNW 05:46:51 70° SW 05:56:35 10° SE visible
02 Apr - 07:44:35 10° W 07:50:50 18° SW 07:56:23 10° SSW daylight
02 Apr - 20:50:04 10° SSW 20:59:19 49° SE 21:08:55 10° ENE visible
02 Apr - 22:54:22 10° WSW 23:04:18 64° NNW 23:14:25 10° NE visible
03 Apr - 01:01:44 10° WNW 01:11:05 39° N 01:20:26 10° ENE visible
03 Apr - 03:08:27 10° NW 03:18:14 50° NNE 03:27:55 10° E visible
03 Apr - 05:13:48 10° WNW 05:23:56 75° SW 05:33:45 10° SE visible
03 Apr - 07:21:13 10° W 07:27:59 20° SW 07:34:06 10° SSW daylight
03 Apr - 20:27:22 10° SSW 20:36:26 45° SE 20:45:54 10° ENE visible
03 Apr - 22:31:23 10° WSW 22:41:20 67° NNW 22:51:28 10° NE visible
04 Apr - 00:38:40 10° WNW 00:48:01 40° N 00:57:24 10° ENE visible
04 Apr - 02:45:28 10° NW 02:55:13 48° NNE 03:04:53 10° E visible
04 Apr - 04:50:51 10° NW 05:01:02 79° SW 05:10:55 10° SE visible
04 Apr - 06:57:56 10° W 07:05:09 22° SW 07:11:44 10° S daylight
04 Apr - 20:04:40 10° SSW 20:13:34 42° SE 20:22:52 10° ENE visible
04 Apr - 22:08:25 10° WSW 22:18:21 70° NNW 22:28:32 10° NE visible
05 Apr - 00:15:36 10° WNW 00:24:58 40° N 00:34:23 10° ENE visible
05 Apr - 02:22:29 10° NW 02:32:12 47° NNE 02:41:50 10° E visible
05 Apr - 04:27:53 10° NW 04:38:06 83° SW 04:48:02 10° SE visible
05 Apr - 06:34:42 10° WNW 06:42:17 24° SW 06:49:19 10° S daylight
05 Apr - 19:42:00 10° SSW 19:50:42 39° SE 19:59:50 10° ENE visible
05 Apr - 21:45:28 10° WSW 21:55:23 73° NNW 22:05:35 10° NE visible
05 Apr - 23:52:32 10° WNW 00:01:55 41° N 00:11:21 10° ENE visible
06 Apr - 01:59:30 10° NW 02:09:10 45° NNE 02:18:47 10° E visible
06 Apr - 04:04:56 10° NW 04:15:11 87° SW 04:25:10 10° SE visible
06 Apr - 06:11:31 10° WNW 06:19:26 26° SW 06:26:51 10° S visible
06 Apr - 19:19:22 10° SSW 19:27:50 36° SE 19:36:45 10° ENE daylight
06 Apr - 21:22:31 10° WSW 21:32:25 76° NNW 21:42:37 10° NE visible
06 Apr - 23:29:29 10° WNW 23:38:52 41° N 23:48:20 10° ENE visible
07 Apr - 01:36:31 10° NW 01:46:08 44° NNE 01:55:43 10° E visible
07 Apr - 03:41:59 10° NW 03:52:14 89° NNE 04:02:16 10° SE visible
07 Apr - 05:48:21 10° WNW 05:56:35 28° SW 06:04:20 10° S visible
07 Apr - 18:56:44 10° S 19:04:59 34° SE 19:13:41 10° ENE daylight
07 Apr - 20:59:36 10° WSW 21:09:28 80° NW 21:19:41 10° NE visible
07 Apr - 23:06:25 10° W 23:15:49 42° NNW 23:25:19 10° ENE visible
08 Apr - 01:13:32 10° NW 01:23:05 43° NNE 01:32:38 10° E visible
08 Apr - 03:19:02 10° NW 03:29:18 85° NE 03:39:21 10° SE visible
08 Apr - 05:25:14 10° WNW 05:33:43 30° SW 05:41:47 10° S visible
08 Apr - 18:34:10 10° S 18:42:08 31° SE 18:50:35 10° ENE daylight
08 Apr - 20:36:41 10° SW 20:46:32 83° NW 20:56:44 10° NE visible
08 Apr - 22:43:22 10° W 22:52:46 43° NNW 23:02:19 10° ENE visible
09 Apr - 00:50:33 10° WNW 01:00:03 42° NNE 01:09:34 10° E visible
09 Apr - 02:56:06 10° NW 03:06:21 82° NE 03:16:26 10° ESE visible
09 Apr - 05:02:07 10° WNW 05:10:52 33° SW 05:19:12 10° S visible
09 Apr - 18:11:36 10° S 18:19:17 29° SE 18:27:28 10° ENE daylight
09 Apr - 20:13:47 10° SW 20:23:36 87° NW 20:33:46 10° NE visible
09 Apr - 22:20:19 10° W 22:29:44 44° NNW 22:39:18 10° NE visible
10 Apr - 00:27:33 10° WNW 00:37:00 42° N 00:46:30 10° E visible
10 Apr - 02:33:09 10° NW 02:43:24 78° NNE 02:53:29 10° ESE visible
10 Apr - 04:39:02 10° WNW 04:47:59 36° SW 04:56:34 10° S visible
10 Apr - 17:49:06 10° S 17:56:27 26° SE 18:04:19 10° ENE daylight
10 Apr - 19:50:54 10° SW 20:00:40 89° SE 20:10:49 10° NE visible
10 Apr - 21:57:17 10° W 22:06:42 45° NNW 22:16:19 10° NE visible
